When you browse on this site, cookies collect data to enhance your experience and personalize the content and advertising you see.
Visit our Privacy Policy to learn more. By continuing to use the site, you agree to this use of cookies and data.
  • In Austria
  • List of Countries
  • For 7 days
  • Water Temperature
  • Satellite Maps
  • Weather Map
  • News
  • Weather Widgets
  • user-avatar
    Login

    Hourly Weather Inchhon

    Today, 21 May, Tuesday

    Time Temperature Precipitation Wind Pressure Humidity
    00:00 +15°C° 0 mm 5 mps 754 mmHg 56%
    01:00 +15°C° 0 mm 5 mps 754 mmHg 60%
    02:00 +15°C° 0 mm 5 mps 754 mmHg 65%
    03:00 +15°C° 0 mm 5 mps 754 mmHg 65%
    04:00 +15°C° 0 mm 5 mps 753 mmHg 65%
    05:00 +15°C° 0 mm 5 mps 753 mmHg 64%
    06:00 +16°C° 0 mm 5 mps 753 mmHg 60%
    07:00 +17°C° 0 mm 6 mps 753 mmHg 55%
    08:00 +19°C° 0 mm 4 mps 753 mmHg 54%
    09:00 +20°C° 0 mm 5 mps 752 mmHg 48%
    10:00 +21°C° 0 mm 6 mps 752 mmHg 42%
    11:00 +22°C° 0 mm 7 mps 752 mmHg 36%
    12:00 +23°C° 0 mm 7 mps 752 mmHg 35%
    13:00 +23°C° 0 mm 8 mps 751 mmHg 33%
    14:00 +23°C° 0 mm 6 mps 751 mmHg 30%
    15:00 +23°C° 0 mm 6 mps 751 mmHg 33%
    16:00 +22°C° 0 mm 6 mps 751 mmHg 36%
    17:00 +21°C° 0 mm 6 mps 751 mmHg 39%
    18:00 +21°C° 0 mm 6 mps 751 mmHg 44%
    19:00 +20°C° 0 mm 5 mps 752 mmHg 49%
    20:00 +19°C° 0 mm 5 mps 752 mmHg 54%
    21:00 +19°C° 0 mm 5 mps 752 mmHg 54%
    22:00 +18°C° 0 mm 4 mps 752 mmHg 55%
    23:00 +18°C° 0 mm 4 mps 753 mmHg 56%

    Tomorrow, 22 May, Wednesday

    Time Temperature Precipitation Wind Pressure Humidity
    00:00 +18°C° 0 mm 4 mps 753 mmHg 57%
    01:00 +18°C° 0 mm 4 mps 753 mmHg 58%
    02:00 +18°C° 0 mm 3 mps 752 mmHg 59%
    03:00 +17°C° 0 mm 3 mps 752 mmHg 59%
    04:00 +17°C° 0 mm 3 mps 752 mmHg 60%
    05:00 +17°C° 0 mm 3 mps 752 mmHg 61%
    06:00 +18°C° 0 mm 3 mps 752 mmHg 56%
    07:00 +20°C° 0 mm 4 mps 752 mmHg 50%
    08:00 +21°C° 0 mm 4 mps 752 mmHg 45%
    09:00 +22°C° 0 mm 5 mps 752 mmHg 41%
    10:00 +23°C° 0 mm 6 mps 752 mmHg 37%
    11:00 +24°C° 0 mm 7 mps 752 mmHg 32%
    12:00 +26°C° 0 mm 6 mps 752 mmHg 31%
    13:00 +26°C° 0 mm 6 mps 752 mmHg 31%
    14:00 +26°C° 0 mm 6 mps 751 mmHg 30%
    15:00 +26°C° 0 mm 6 mps 751 mmHg 33%
    16:00 +25°C° 0 mm 5 mps 751 mmHg 37%
    17:00 +23°C° 0 mm 5 mps 751 mmHg 41%
    18:00 +22°C° 0 mm 4 mps 752 mmHg 47%
    19:00 +21°C° 0 mm 4 mps 752 mmHg 52%
    20:00 +20°C° 0 mm 3 mps 752 mmHg 58%
    21:00 +20°C° 0 mm 3 mps 753 mmHg 60%
    22:00 +19°C° 0 mm 3 mps 753 mmHg 62%
    23:00 +19°C° 0 mm 2 mps 754 mmHg 65%

    Day after tomorrow, 23 May, Thursday

    Time Temperature Precipitation Wind Pressure Humidity
    00:00 +19°C° 0 mm 2 mps 754 mmHg 67%
    01:00 +18°C° 0 mm 2 mps 754 mmHg 69%
    02:00 +18°C° 0 mm 2 mps 754 mmHg 71%
    03:00 +18°C° 0 mm 2 mps 754 mmHg 72%
    04:00 +18°C° 0 mm 2 mps 755 mmHg 73%
    05:00 +17°C° 0 mm 2 mps 755 mmHg 74%
    06:00 +18°C° 0 mm 2 mps 755 mmHg 68%
    07:00 +20°C° 0 mm 3 mps 755 mmHg 62%
    08:00 +21°C° 0 mm 3 mps 755 mmHg 56%
    09:00 +24°C° 0 mm 3 mps 755 mmHg 49%
    10:00 +25°C° 0 mm 3 mps 755 mmHg 41%
    11:00 +27°C° 0 mm 3 mps 755 mmHg 34%
    12:00 +28°C° 0 mm 3 mps 755 mmHg 31%
    13:00 +29°C° 0 mm 4 mps 755 mmHg 28%
    14:00 +29°C° 0 mm 4 mps 754 mmHg 26%
    15:00 +29°C° 0 mm 4 mps 754 mmHg 27%
    16:00 +28°C° 0 mm 4 mps 754 mmHg 29%
    17:00 +27°C° 0 mm 3 mps 754 mmHg 31%
    18:00 +26°C° 0 mm 3 mps 754 mmHg 36%
    19:00 +25°C° 0 mm 3 mps 755 mmHg 41%
    20:00 +24°C° 0 mm 2 mps 755 mmHg 46%
    21:00 +23°C° 0 mm 2 mps 755 mmHg 48%
    22:00 +23°C° 0 mm 2 mps 756 mmHg 50%
    23:00 +21°C° 0 mm 2 mps 756 mmHg 53%

    24 May, Friday

    Time Temperature Precipitation Wind Pressure Humidity
    00:00 +21°C° 0 mm 2 mps 756 mmHg 56%
    01:00 +20°C° 0 mm 3 mps 756 mmHg 59%
    02:00 +20°C° 0 mm 3 mps 756 mmHg 62%
    03:00 +20°C° 0 mm 3 mps 756 mmHg 62%
    04:00 +20°C° 0 mm 3 mps 756 mmHg 63%
    05:00 +19°C° 0 mm 2 mps 756 mmHg 64%
    06:00 +21°C° 0 mm 3 mps 756 mmHg 60%
    07:00 +22°C° 0 mm 3 mps 756 mmHg 57%
    08:00 +24°C° 0 mm 3 mps 756 mmHg 53%
    09:00 +26°C° 0 mm 3 mps 756 mmHg 49%
    10:00 +27°C° 0 mm 3 mps 756 mmHg 44%
    11:00 +29°C° 0 mm 3 mps 756 mmHg 40%
    12:00 +30°C° 0 mm 4 mps 755 mmHg 40%
    13:00 +30°C° 0 mm 4 mps 755 mmHg 39%
    14:00 +32°C° 0 mm 4 mps 755 mmHg 39%
    15:00 +30°C° 0 mm 4 mps 755 mmHg 41%
    16:00 +29°C° 0 mm 4 mps 755 mmHg 44%
    17:00 +27°C° 0 mm 4 mps 755 mmHg 47%
    18:00 +26°C° 0 mm 4 mps 756 mmHg 49%
    19:00 +25°C° 0 mm 4 mps 756 mmHg 52%
    20:00 +24°C° 0 mm 3 mps 757 mmHg 55%
    21:00 +22°C° 0 mm 3 mps 757 mmHg 56%
    22:00 +22°C° 0 mm 3 mps 757 mmHg 58%
    23:00 +21°C° 0 mm 3 mps 758 mmHg 60%

    25 May, Saturday

    Time Temperature Precipitation Wind Pressure Humidity
    00:00 +21°C° 0 mm 3 mps 758 mmHg 61%
    01:00 +21°C° 0 mm 2 mps 758 mmHg 62%
    02:00 +21°C° 0 mm 2 mps 758 mmHg 64%
    03:00 +20°C° 0 mm 2 mps 758 mmHg 64%
    04:00 +20°C° 0 mm 2 mps 758 mmHg 64%
    05:00 +20°C° 0 mm 2 mps 758 mmHg 64%
    06:00 +21°C° 0 mm 2 mps 759 mmHg 58%
    07:00 +23°C° 0 mm 2 mps 759 mmHg 53%
    08:00 +24°C° 0 mm 2 mps 759 mmHg 47%
    09:00 +26°C° 0 mm 2 mps 759 mmHg 42%
    10:00 +27°C° 0 mm 2 mps 759 mmHg 37%
    11:00 +29°C° 0 mm 2 mps 759 mmHg 32%
    12:00 +29°C° 0 mm 2 mps 759 mmHg 31%
    13:00 +30°C° 0 mm 2 mps 759 mmHg 31%
    14:00 +30°C° 0 mm 3 mps 758 mmHg 30%
    15:00 +29°C° 0 mm 2 mps 759 mmHg 32%
    16:00 +29°C° 0 mm 2 mps 759 mmHg 35%
    17:00 +28°C° 0 mm 2 mps 759 mmHg 37%
    18:00 +27°C° 0 mm 2 mps 759 mmHg 41%
    19:00 +26°C° 0 mm 2 mps 759 mmHg 46%
    20:00 +25°C° 0 mm 1 mps 760 mmHg 50%
    21:00 +25°C° 0 mm 1 mps 760 mmHg 50%
    22:00 +24°C° 0 mm 1 mps 760 mmHg 50%
    23:00 +24°C° 0 mm 1 mps 760 mmHg 50%

    26 May, Sunday

    Time Temperature Precipitation Wind Pressure Humidity
    00:00 +24°C° 0 mm 2 mps 759 mmHg 50%
    01:00 +24°C° 0 mm 3 mps 759 mmHg 50%
    02:00 +23°C° 0 mm 4 mps 759 mmHg 49%
    03:00 +23°C° 0 mm 4 mps 759 mmHg 49%
    04:00 +23°C° 0 mm 4 mps 759 mmHg 49%
    05:00 +23°C° 0 mm 5 mps 758 mmHg 48%
    06:00 +23°C° 0 mm 5 mps 758 mmHg 48%
    07:00 +23°C° 0 mm 5 mps 759 mmHg 48%
    08:00 +23°C° 0 mm 5 mps 759 mmHg 48%
    09:00 +25°C° 0 mm 4 mps 758 mmHg 45%
    10:00 +26°C° 0 mm 3 mps 758 mmHg 43%
    11:00 +26°C° 0 mm 2 mps 758 mmHg 40%
    12:00 +27°C° 0 mm 3 mps 758 mmHg 37%
    13:00 +28°C° 0 mm 4 mps 757 mmHg 34%
    14:00 +28°C° 0 mm 5 mps 757 mmHg 31%
    15:00 +27°C° 0.1 mm 5 mps 757 mmHg 36%
    16:00 +26°C° 0.1 mm 6 mps 757 mmHg 41%
    17:00 +24°C° 0.1 mm 6 mps 757 mmHg 46%
    18:00 +23°C° 0.6 mm 6 mps 757 mmHg 46%
    19:00 +23°C° 0.6 mm 7 mps 757 mmHg 46%
    20:00 +23°C° 0.6 mm 7 mps 757 mmHg 46%
    21:00 +23°C° 0.5 mm 7 mps 756 mmHg 48%
    22:00 +23°C° 0.5 mm 7 mps 756 mmHg 50%
    23:00 +23°C° 0.5 mm 6 mps 755 mmHg 52%
    Show more